User: anonymous   Login
Location: Unspecified
(0.0000°N, 0.0000°E)
Time: 05:50:13
(UTC+00:00)
Language:

Vela 3A - Orbit

View from above orbital plane
View from above orbital plane
View from above satellite
View from above satellite

Ground track
Ground track

The orbit data is extracted from the following two-line orbital elements,

1 01458U 65058A   15089.35563829 -.00001714  00000-0  00000+0 0  9999
2 01458 022.2939 011.5801 5095746 193.3885 358.9522 00.21452994 77448
Epoch (UTC): 30 March 2015 08:32:07
Eccentricity: 0.5095746
inclination: 22.2939°
perigee height: 51428 km
apogee height: 171556 km
right ascension of ascending node: 11.5801°
argument of perigee: 193.3885°
revolutions per day: 0.21452994
mean anomaly at epoch: 358.9522°
orbit number at epoch: 7744

The dashed part of the orbit path shows where the satellite is in the earth's shadow,  

DLR